QPF
0.00 0.00 0.00 0.00 0.00 0.00 0.00 0.00 0.00 0.00 0.00 0.00 0.00 0.00 0.00 0.00 0.00 0.00 0.00 0.00 0.00 0.00 0.00 0.00 0.00 0.00 0.00 0.00 0.00 0.00 0.00 0.00 0.00 0.00 0.00 0.00 0.00 0.00 0.00 0.00 0.00 0.00 0.00
0.00 0.00 0.00 0.00 0.00 0.00 0.00 0.00 0.00 0.00 0.00 0.00 0.00 0.00 0.00 0.00 0.00 0.00 0.00 0.00 0.00 0.00 0.00 0.00 0.00 0.00 0.00 0.00 0.00 0.00 0.00 0.00 0.00 0.00 0.00 0.00 0.00 0.00 0.00 0.00 0.00 0.00 0.00
0.00 0.00 0.00 0.00 0.00 0.00 0.00 0.00 0.00 0.00 0.00 0.00 0.00 0.00 0.00 0.00 0.00 0.00 0.00 0.00 0.00 0.00 0.00 0.00 0.00 0.00 0.00 0.00 0.00 0.00 0.00 0.00 0.00 0.00 0.00 0.00 0.00 0.00 0.00 0.00 0.00 0.00 0.00
0.00 0.00 0.00 0.00 0.00 0.00 0.00 0.00 0.00 0.00 0.00 0.00 0.00 0.00 0.00 0.00 0.00 0.00 0.00 0.00 0.00 0.00 0.00 0.00 0.00 0.00 0.00 0.00 0.00 0.00 0.00 0.00 0.00 0.00 0.00 0.00 0.00 0.00 0.00 0.00 0.00 0.00 0.00
0.00 0.00 0.00 0.00 0.00 0.00 0.00 0.00 0.00 0.00 0.00 0.00 0.00 0.00 0.00 0.00 0.00 0.00 0.00 0.00 0.00 0.00 0.00 0.00 0.00 0.00 0.00 0.00 0.00 0.00 0.00 0.00 0.00 0.00 0.00 0.00 0.00 0.00 0.00 0.00 0.00 0.00 0.00
0.00 0.00 0.00 0.00 0.00 0.00 0.00 0.00 0.00 0.00 0.00 0.00 0.00 0.00 0.00 0.00 0.00 0.00 0.00 0.00 0.00 0.00 0.00 0.00 0.00 0.00 0.00 0.00 0.00 0.00 0.00 0.00 0.00 0.00 0.00 0.00 0.00 0.00 0.00 0.00 0.00 0.00 0.00
0.00 0.00 0.00 0.00 0.00 0.00 0.00 0.00 0.00 0.00 0.00 0.00 0.00 0.00 0.00 0.00 0.00 0.00 0.00 0.00 0.00 0.00 0.00 0.00 0.00 0.00 0.00 0.00 0.00 0.00 0.00 0.00 0.00 0.00 0.00 0.00 0.00 0.00 0.00 0.00 0.00 0.00 0.00
0.00 0.00 0.00 0.00 0.00 0.00 0.00 0.00 0.00 0.00 0.00 0.00 0.00 0.00 0.00 0.00 0.00 0.00 0.00 0.00 0.00 0.00 0.00 0.00 0.00 0.00 0.00 0.00 0.00 0.00 0.00 0.00 0.00 0.00 0.00 0.00 0.00 0.00 0.00 0.00 0.00 0.00 0.00
0.00 0.00 0.00 0.00 0.00 0.00 0.00 0.00 0.00 0.00 0.00 0.00 0.00 0.00 0.00 0.00 0.00 0.00 0.00 0.00 0.00 0.00 0.00 0.00 0.00 0.00 0.00 0.00 0.00 0.00 0.00 0.00 0.00 0.00 0.00 0.00 0.00 0.00 0.00 0.00 0.00 0.00 0.00
0.00 0.00 0.00 0.00 0.00 0.00 0.00 0.00 0.00 0.00 0.00 0.00 0.00 0.00 0.00 0.00 0.00 0.00 0.00 0.00 0.00 0.00 0.00 0.00 0.00 0.00 0.00 0.00 0.00 0.00 0.00 0.00 0.00 0.00 0.00 0.00 0.00 0.00 0.00 0.00 0.00 0.00 0.00
0.00 0.00 0.00 0.00 0.00 0.00 0.00 0.00 0.00 0.00 0.00 0.00 0.00 0.00 0.00 0.00 0.00 0.00 0.00 0.00 0.00 0.00 0.00 0.00 0.00 0.00 0.00 0.00 0.00 0.00 0.00 0.00 0.00 0.00 0.00 0.00 0.00 0.00 0.00 0.00 0.00 0.00 0.00
0.00 0.00 0.00 0.00 0.00 0.00 0.00 0.00 0.00 0.00 0.00 0.00 0.00 0.00 0.00 0.00 0.00 0.00 0.00 0.00 0.00 0.00 0.00 0.00 0.00 0.00 0.00 0.00 0.00 0.00 0.00 0.00 0.00 0.00 0.00 0.00 0.00 0.00 0.00 0.00 0.00 0.00 0.00
0.00 0.00 0.00 0.00 0.00 0.00 0.00 0.00 0.00 0.00 0.00 0.00 0.00 0.00 0.00 0.00 0.00 0.00 0.00 0.00 0.00 0.00 0.00 0.00 0.00 0.00 0.00 0.00 0.00 0.00 0.00 0.00 0.00 0.00 0.00 0.00 0.00 0.00 0.00 0.00 0.00 0.00 0.00
0.00 0.00 0.00 0.00 0.00 0.00 0.00 0.00 0.00 0.00 0.00 0.00 0.00 0.00 0.00 0.00 0.00 0.00 0.00 0.00 0.00 0.00 0.00 0.00 0.00 0.00 0.00 0.00 0.00 0.00 0.00 0.00 0.00 0.00 0.00 0.00 0.00 0.00 0.00 0.00 0.00 0.00 0.00
0.00 0.00 0.00 0.00 0.00 0.00 0.00 0.00 0.00 0.00 0.00 0.00 0.00 0.00 0.00 0.00 0.00 0.00 0.00 0.00 0.00 0.00 0.00 0.00 0.00 0.00 0.00 0.00 0.00 0.00 0.00 0.00 0.00 0.00 0.00 0.00 0.00 0.00 0.00 0.00 0.01 0.01 0.01
0.00 0.00 0.00 0.00 0.00 0.00 0.00 0.00 0.00 0.00 0.00 0.00 0.00 0.00 0.00 0.00 0.00 0.00 0.00 0.00 0.00 0.00 0.00 0.00 0.00 0.00 0.00 0.00 0.00 0.00 0.00 0.00 0.00 0.00 0.00 0.00 0.00 0.00 0.00 0.01 0.01 0.01 0.02
0.00 0.00 0.00 0.00 0.00 0.00 0.00 0.00 0.00 0.00 0.00 0.00 0.00 0.00 0.00 0.00 0.00 0.00 0.00 0.00 0.00 0.00 0.00 0.00 0.00 0.00 0.00 0.00 0.00 0.00 0.00 0.00 0.00 0.00 0.00 0.00 0.00 0.00 0.00 0.00 0.00 0.01 0.01
0.00 0.00 0.00 0.00 0.00 0.00 0.00 0.00 0.00 0.00 0.00 0.00 0.00 0.00 0.00 0.00 0.00 0.00 0.00 0.00 0.00 0.00 0.00 0.00 0.00 0.00 0.00 0.00 0.00 0.00 0.00 0.00 0.00 0.00 0.00 0.00 0.00 0.00 0.00 0.00 0.00 0.00 0.00
0.00 0.00 0.00 0.00 0.00 0.00 0.00 0.00 0.00 0.00 0.00 0.00 0.00 0.00 0.00 0.00 0.00 0.00 0.00 0.00 0.00 0.00 0.00 0.00 0.00 0.00 0.00 0.00 0.00 0.00 0.00 0.00 0.00 0.00 0.00 0.00 0.00 0.00 0.02 0.02 0.01 0.01 0.00
0.00 0.00 0.00 0.00 0.00 0.00 0.00 0.00 0.00 0.00 0.00 0.00 0.00 0.00 0.00 0.00 0.00 0.00 0.00 0.00 0.00 0.00 0.00 0.00 0.00 0.00 0.00 0.00 0.00 0.00 0.00 0.00 0.00 0.00 0.00 0.00 0.01 0.01 0.03 0.02 0.03 0.04 0.03
0.00 0.00 0.00 0.00 0.00 0.00 0.00 0.00 0.00 0.00 0.00 0.00 0.00 0.00 0.00 0.00 0.00 0.00 0.00 0.00 0.00 0.00 0.00 0.00 0.00 0.00 0.00 0.00 0.00 0.00 0.00 0.00 0.01 0.01 0.00 0.00 0.01 0.02 0.03 0.05 0.05 0.05 0.04
0.00 0.00 0.00 0.00 0.00 0.00 0.00 0.00 0.00 0.00 0.00 0.00 0.00 0.00 0.00 0.00 0.00 0.00 0.00 0.00 0.00 0.00 0.00 0.00 0.00 0.00 0.00 0.00 0.00 0.00 0.01 0.01 0.01 0.01 0.00 0.00 0.02 0.03 0.05 0.04 0.03 0.03 0.03
0.00 0.00 0.00 0.00 0.00 0.00 0.00 0.00 0.00 0.00 0.00 0.00 0.00 0.00 0.00 0.00 0.00 0.00 0.00 0.00 0.00 0.00 0.00 0.00 0.00 0.00 0.00 0.00 0.00 0.00 0.01 0.01 0.02 0.01 0.01 0.02 0.03 0.04 0.02 0.01 0.01 0.02 0.01
0.00 0.00 0.00 0.00 0.00 0.00 0.00 0.00 0.00 0.00 0.00 0.00 0.00 0.00 0.00 0.00 0.00 0.00 0.00 0.00 0.00 0.00 0.00 0.00 0.00 0.00 0.00 0.00 0.00 0.00 0.01 0.01 0.02 0.01 0.01 0.03 0.03 0.01 0.01 0.01 0.01 0.00 0.01
0.00 0.00 0.00 0.00 0.00 0.00 0.00 0.00 0.00 0.00 0.00 0.00 0.00 0.00 0.00 0.00 0.00 0.00 0.00 0.00 0.00 0.00 0.00 0.00 0.00 0.00 0.00 0.00 0.01 0.02 0.02 0.02 0.02 0.03 0.04 0.03 0.02 0.01 0.00 0.00 0.00 0.00 0.01
0.00 0.00 0.00 0.00 0.00 0.00 0.00 0.00 0.00 0.00 0.00 0.00 0.00 0.00 0.00 0.00 0.00 0.00 0.00 0.00 0.00 0.00 0.00 0.00 0.00 0.00 0.01 0.01 0.02 0.02 0.02 0.03 0.03 0.04 0.04 0.02 0.01 0.01 0.01 0.01 0.00 0.00 0.01
MSLP
1015.48 1015.78 1016.00 1016.11 1016.17 1016.21 1016.30 1016.52 1016.89 1017.42 1018.09 1018.84 1019.60 1020.31 1020.91 1021.36 1021.66 1021.84 1021.94 1022.00 1022.07 1022.19 1022.38 1022.62 1022.91 1023.22 1023.52 1023.79 1023.99 1024.12 1024.16 1024.12 1024.01 1023.84 1023.61 1023.35 1023.07 1022.79 1022.53 1022.28 1022.07 1021.88 1021.72
1015.21 1015.63 1015.94 1016.12 1016.20 1016.24 1016.31 1016.48 1016.82 1017.34 1018.03 1018.82 1019.65 1020.43 1021.10 1021.62 1021.97 1022.17 1022.27 1022.33 1022.39 1022.50 1022.67 1022.92 1023.21 1023.53 1023.83 1024.09 1024.28 1024.39 1024.43 1024.38 1024.27 1024.11 1023.90 1023.66 1023.39 1023.11 1022.81 1022.52 1022.23 1021.97 1021.74
1014.92 1015.46 1015.88 1016.15 1016.29 1016.35 1016.40 1016.55 1016.86 1017.36 1018.04 1018.85 1019.71 1020.55 1021.27 1021.84 1022.23 1022.46 1022.57 1022.63 1022.69 1022.79 1022.96 1023.20 1023.49 1023.79 1024.07 1024.31 1024.47 1024.56 1024.59 1024.54 1024.45 1024.32 1024.16 1023.96 1023.72 1023.45 1023.14 1022.80 1022.45 1022.11 1021.78
1014.63 1015.29 1015.83 1016.20 1016.41 1016.51 1016.57 1016.70 1016.98 1017.45 1018.11 1018.90 1019.77 1020.62 1021.37 1021.97 1022.38 1022.64 1022.78 1022.86 1022.93 1023.03 1023.20 1023.43 1023.69 1023.97 1024.22 1024.42 1024.55 1024.62 1024.63 1024.60 1024.54 1024.46 1024.35 1024.21 1024.03 1023.78 1023.47 1023.10 1022.69 1022.27 1021.85
1014.37 1015.14 1015.80 1016.27 1016.56 1016.71 1016.79 1016.91 1017.16 1017.58 1018.19 1018.94 1019.78 1020.61 1021.36 1021.97 1022.41 1022.70 1022.87 1022.97 1023.06 1023.18 1023.35 1023.57 1023.82 1024.07 1024.28 1024.44 1024.54 1024.58 1024.58 1024.56 1024.53 1024.50 1024.46 1024.39 1024.26 1024.05 1023.76 1023.37 1022.92 1022.42 1021.91
1014.15 1015.01 1015.77 1016.34 1016.71 1016.91 1017.02 1017.13 1017.34 1017.71 1018.26 1018.95 1019.74 1020.53 1021.26 1021.87 1022.32 1022.63 1022.84 1022.98 1023.10 1023.25 1023.43 1023.65 1023.88 1024.10 1024.27 1024.39 1024.45 1024.47 1024.46 1024.44 1024.44 1024.46 1024.47 1024.46 1024.39 1024.23 1023.95 1023.56 1023.07 1022.51 1021.93
1013.97 1014.90 1015.73 1016.38 1016.82 1017.06 1017.20 1017.31 1017.50 1017.82 1018.31 1018.93 1019.65 1020.39 1021.09 1021.68 1022.15 1022.49 1022.73 1022.91 1023.07 1023.25 1023.45 1023.67 1023.89 1024.08 1024.23 1024.31 1024.33 1024.31 1024.28 1024.27 1024.28 1024.33 1024.38 1024.42 1024.39 1024.27 1024.01 1023.62 1023.11 1022.52 1021.88
1013.82 1014.78 1015.65 1016.35 1016.83 1017.12 1017.29 1017.41 1017.58 1017.87 1018.31 1018.88 1019.54 1020.24 1020.90 1021.48 1021.95 1022.31 1022.58 1022.80 1023.00 1023.21 1023.43 1023.65 1023.86 1024.03 1024.15 1024.19 1024.18 1024.13 1024.08 1024.05 1024.06 1024.11 1024.18 1024.23 1024.23 1024.13 1023.90 1023.52 1023.01 1022.39 1021.73
1013.64 1014.59 1015.47 1016.19 1016.71 1017.04 1017.24 1017.39 1017.57 1017.86 1018.27 1018.81 1019.43 1020.09 1020.72 1021.29 1021.76 1022.14 1022.43 1022.68 1022.91 1023.14 1023.37 1023.59 1023.79 1023.94 1024.03 1024.04 1023.99 1023.91 1023.83 1023.77 1023.76 1023.79 1023.86 1023.91 1023.91 1023.82 1023.59 1023.23 1022.72 1022.11 1021.44
1013.41 1014.32 1015.17 1015.88 1016.42 1016.78 1017.03 1017.22 1017.45 1017.76 1018.18 1018.71 1019.32 1019.96 1020.59 1021.14 1021.61 1021.99 1022.30 1022.56 1022.80 1023.03 1023.26 1023.47 1023.65 1023.78 1023.84 1023.82 1023.75 1023.64 1023.52 1023.43 1023.39 1023.39 1023.42 1023.45 1023.43 1023.33 1023.11 1022.75 1022.26 1021.67 1021.00
1013.07 1013.91 1014.71 1015.40 1015.93 1016.33 1016.63 1016.90 1017.19 1017.56 1018.03 1018.59 1019.22 1019.86 1020.48 1021.03 1021.49 1021.87 1022.17 1022.42 1022.64 1022.86 1023.06 1023.25 1023.41 1023.51 1023.55 1023.51 1023.42 1023.29 1023.15 1023.03 1022.94 1022.90 1022.88 1022.87 1022.81 1022.69 1022.46 1022.10 1021.63 1021.06 1020.42
1012.62 1013.37 1014.10 1014.75 1015.28 1015.71 1016.08 1016.43 1016.81 1017.27 1017.81 1018.42 1019.08 1019.75 1020.37 1020.91 1021.36 1021.72 1022.00 1022.23 1022.42 1022.60 1022.77 1022.93 1023.06 1023.13 1023.15 1023.10 1023.00 1022.85 1022.69 1022.54 1022.42 1022.33 1022.26 1022.19 1022.09 1021.93 1021.68 1021.32 1020.86 1020.32 1019.71
1012.07 1012.73 1013.38 1013.98 1014.51 1014.97 1015.40 1015.84 1016.33 1016.88 1017.51 1018.19 1018.90 1019.59 1020.22 1020.76 1021.19 1021.53 1021.78 1021.97 1022.12 1022.26 1022.39 1022.50 1022.59 1022.65 1022.65 1022.59 1022.48 1022.33 1022.16 1021.99 1021.83 1021.70 1021.58 1021.46 1021.31 1021.10 1020.82 1020.46 1020.00 1019.48 1018.90
1011.47 1012.03 1012.60 1013.15 1013.67 1014.17 1014.67 1015.19 1015.78 1016.43 1017.14 1017.89 1018.64 1019.35 1019.99 1020.52 1020.94 1021.26 1021.48 1021.63 1021.75 1021.84 1021.93 1022.00 1022.06 1022.09 1022.07 1022.01 1021.90 1021.75 1021.57 1021.39 1021.20 1021.03 1020.86 1020.69 1020.49 1020.24 1019.93 1019.54 1019.09 1018.57 1018.01
1010.87 1011.34 1011.84 1012.35 1012.87 1013.39 1013.94 1014.54 1015.20 1015.93 1016.71 1017.51 1018.30 1019.03 1019.67 1020.20 1020.61 1020.91 1021.11 1021.24 1021.33 1021.39 1021.44 1021.48 1021.51 1021.51 1021.48 1021.40 1021.28 1021.13 1020.95 1020.75 1020.55 1020.34 1020.13 1019.91 1019.66 1019.36 1019.02 1018.61 1018.15 1017.63 1017.08
1010.34 1010.75 1011.19 1011.67 1012.17 1012.71 1013.30 1013.95 1014.67 1015.44 1016.26 1017.09 1017.89 1018.63 1019.27 1019.80 1020.21 1020.51 1020.71 1020.84 1020.91 1020.96 1020.99 1021.00 1021.00 1020.97 1020.91 1020.81 1020.67 1020.51 1020.31 1020.09 1019.86 1019.63 1019.38 1019.11 1018.82 1018.49 1018.11 1017.69 1017.21 1016.70 1016.15
1009.95 1010.31 1010.72 1011.17 1011.66 1012.20 1012.80 1013.48 1014.22 1015.02 1015.84 1016.67 1017.46 1018.19 1018.83 1019.36 1019.78 1020.10 1020.32 1020.46 1020.55 1020.60 1020.62 1020.61 1020.57 1020.50 1020.40 1020.26 1020.09 1019.88 1019.66 1019.41 1019.15 1018.88 1018.60 1018.30 1017.98 1017.62 1017.22 1016.78 1016.29 1015.77 1015.23
1009.75 1010.09 1010.47 1010.90 1011.38 1011.91 1012.52 1013.19 1013.92 1014.69 1015.49 1016.29 1017.05 1017.76 1018.39 1018.93 1019.37 1019.71 1019.97 1020.15 1020.27 1020.33 1020.34 1020.31 1020.23 1020.12 1019.95 1019.75 1019.52 1019.26 1018.98 1018.69 1018.40 1018.10 1017.79 1017.47 1017.12 1016.75 1016.34 1015.89 1015.40 1014.89 1014.35
1009.75 1010.08 1010.45 1010.87 1011.34 1011.87 1012.45 1013.09 1013.79 1014.51 1015.26 1016.00 1016.72 1017.39 1018.00 1018.54 1019.00 1019.39 1019.69 1019.91 1020.06 1020.14 1020.15 1020.09 1019.97 1019.78 1019.54 1019.26 1018.95 1018.62 1018.28 1017.94 1017.60 1017.27 1016.94 1016.61 1016.26 1015.88 1015.47 1015.03 1014.56 1014.06 1013.53
1009.91 1010.26 1010.64 1011.05 1011.52 1012.03 1012.58 1013.19 1013.82 1014.48 1015.15 1015.83 1016.48 1017.11 1017.69 1018.23 1018.71 1019.12 1019.46 1019.73 1019.90 1019.99 1019.99 1019.89 1019.70 1019.44 1019.11 1018.74 1018.34 1017.92 1017.52 1017.13 1016.75 1016.41 1016.07 1015.73 1015.39 1015.03 1014.64 1014.22 1013.77 1013.30 1012.80
1010.20 1010.57 1010.96 1011.39 1011.85 1012.34 1012.87 1013.42 1013.99 1014.58 1015.17 1015.76 1016.35 1016.92 1017.47 1017.99 1018.47 1018.90 1019.27 1019.55 1019.74 1019.82 1019.79 1019.64 1019.38 1019.03 1018.61 1018.15 1017.66 1017.17 1016.71 1016.27 1015.88 1015.52 1015.19 1014.87 1014.56 1014.22 1013.87 1013.48 1013.06 1012.62 1012.15
1010.54 1010.94 1011.36 1011.80 1012.26 1012.74 1013.24 1013.75 1014.26 1014.77 1015.28 1015.79 1016.30 1016.81 1017.32 1017.81 1018.28 1018.70 1019.07 1019.34 1019.52 1019.57 1019.49 1019.28 1018.95 1018.51 1018.01 1017.46 1016.90 1016.36 1015.86 1015.41 1015.01 1014.67 1014.36 1014.07 1013.79 1013.49 1013.17 1012.82 1012.44 1012.03 1011.60
1010.88 1011.32 1011.76 1012.22 1012.68 1013.15 1013.63 1014.09 1014.55 1015.00 1015.44 1015.88 1016.32 1016.77 1017.22 1017.66 1018.09 1018.49 1018.82 1019.06 1019.19 1019.19 1019.05 1018.77 1018.37 1017.86 1017.29 1016.69 1016.09 1015.52 1015.01 1014.56 1014.19 1013.87 1013.60 1013.35 1013.11 1012.85 1012.57 1012.25 1011.90 1011.53 1011.13
1011.19 1011.65 1012.11 1012.58 1013.05 1013.52 1013.97 1014.41 1014.83 1015.22 1015.61 1015.98 1016.36 1016.74 1017.13 1017.52 1017.89 1018.23 1018.50 1018.68 1018.75 1018.68 1018.47 1018.12 1017.66 1017.10 1016.49 1015.85 1015.24 1014.68 1014.19 1013.78 1013.45 1013.18 1012.96 1012.75 1012.55 1012.32 1012.07 1011.77 1011.45 1011.10 1010.73
1011.44 1011.92 1012.39 1012.87 1013.34 1013.80 1014.24 1014.66 1015.05 1015.40 1015.74 1016.07 1016.39 1016.71 1017.04 1017.36 1017.66 1017.92 1018.11 1018.21 1018.20 1018.06 1017.78 1017.37 1016.85 1016.26 1015.64 1015.01 1014.42 1013.90 1013.45 1013.10 1012.82 1012.61 1012.43 1012.27 1012.09 1011.89 1011.64 1011.36 1011.04 1010.70 1010.35
1011.66 1012.13 1012.61 1013.08 1013.55 1014.00 1014.43 1014.82 1015.19 1015.52 1015.83 1016.11 1016.39 1016.65 1016.91 1017.16 1017.38 1017.56 1017.66 1017.68 1017.58 1017.36 1017.01 1016.56 1016.01 1015.41 1014.80 1014.20 1013.66 1013.19 1012.81 1012.52 1012.31 1012.14 1012.01 1011.87 1011.71 1011.51 1011.27 1010.97 1010.65 1010.31 1009.97
Thickness
5689 5687 5684 5682 5680 5678 5675 5671 5666 5660 5654 5647 5641 5635 5630 5626 5623 5620 5616 5613 5610 5606 5602 5598 5594 5590 5586 5581 5578 5574 5570 5567 5565 5564 5563 5565 5566 5565 5564 5561 5560 5558 5556
5682 5680 5677 5674 5673 5670 5668 5664 5660 5654 5649 5644 5637 5631 5625 5620 5616 5612 5608 5605 5602 5598 5594 5590 5585 5581 5577 5572 5568 5564 5560 5556 5554 5551 5549 5547 5550 5553 5556 5552 5550 5548 5545
5679 5674 5670 5667 5664 5661 5659 5658 5652 5648 5643 5637 5630 5623 5617 5612 5607 5604 5600 5597 5594 5590 5586 5581 5577 5572 5568 5562 5558 5554 5550 5545 5542 5539 5536 5533 5532 5534 5541 5541 5539 5536 5533
5674 5669 5664 5660 5656 5654 5651 5649 5645 5640 5635 5630 5625 5620 5613 5606 5601 5596 5592 5588 5585 5581 5577 5572 5568 5563 5558 5553 5549 5545 5540 5535 5531 5527 5524 5521 5519 5516 5523 5529 5528 5526 5523
5668 5665 5660 5655 5650 5646 5643 5640 5636 5631 5627 5623 5619 5613 5606 5599 5593 5588 5584 5579 5575 5572 5568 5563 5558 5553 5548 5543 5539 5535 5530 5525 5521 5516 5512 5508 5504 5500 5500 5509 5513 5513 5512
5661 5657 5652 5647 5642 5637 5634 5631 5628 5623 5619 5615 5610 5606 5599 5592 5586 5580 5575 5570 5566 5562 5558 5553 5548 5543 5538 5534 5529 5524 5520 5515 5510 5506 5501 5497 5492 5489 5485 5487 5493 5499 5501
5652 5648 5643 5639 5635 5630 5627 5623 5620 5615 5610 5607 5602 5598 5592 5586 5580 5573 5567 5562 5557 5552 5548 5543 5538 5533 5528 5524 5519 5514 5509 5505 5500 5495 5491 5487 5483 5479 5475 5472 5475 5478 5484
5645 5643 5639 5634 5629 5625 5620 5617 5613 5608 5603 5599 5594 5589 5584 5578 5572 5566 5560 5554 5548 5543 5538 5533 5528 5523 5518 5514 5509 5504 5499 5494 5489 5485 5480 5476 5472 5468 5463 5459 5457 5460 5465
5640 5637 5632 5628 5624 5619 5615 5611 5607 5602 5597 5592 5586 5580 5575 5570 5564 5557 5551 5545 5539 5534 5529 5523 5518 5513 5508 5503 5498 5493 5488 5484 5479 5474 5470 5465 5462 5457 5453 5447 5442 5437 5444
5633 5630 5626 5623 5618 5614 5609 5605 5601 5596 5590 5585 5579 5573 5567 5561 5555 5548 5542 5536 5530 5525 5519 5514 5508 5503 5498 5493 5488 5483 5478 5473 5468 5464 5459 5455 5451 5447 5442 5436 5431 5425 5423
5629 5626 5622 5617 5613 5607 5602 5598 5594 5589 5583 5577 5571 5565 5558 5552 5545 5539 5533 5527 5521 5515 5509 5504 5498 5493 5488 5483 5478 5473 5468 5463 5458 5454 5449 5445 5441 5436 5431 5426 5420 5414 5408
5626 5622 5617 5611 5606 5601 5596 5592 5587 5582 5576 5570 5563 5556 5549 5542 5536 5529 5523 5517 5511 5505 5499 5494 5488 5483 5478 5473 5468 5463 5458 5453 5448 5444 5439 5435 5430 5425 5420 5414 5408 5403 5397
5622 5616 5611 5607 5603 5598 5592 5587 5582 5576 5569 5562 5554 5547 5540 5533 5526 5520 5514 5507 5501 5495 5490 5484 5478 5473 5468 5463 5458 5453 5448 5444 5439 5434 5429 5424 5418 5413 5408 5402 5396 5391 5386
5618 5612 5607 5604 5599 5594 5589 5583 5576 5569 5562 5554 5546 5538 5531 5524 5517 5511 5504 5498 5491 5485 5480 5474 5469 5463 5458 5453 5448 5444 5439 5434 5430 5424 5419 5413 5406 5401 5395 5390 5383 5377 5372
5613 5609 5605 5600 5594 5588 5582 5576 5569 5562 5554 5546 5538 5530 5523 5515 5508 5501 5494 5488 5482 5476 5470 5464 5458 5453 5448 5443 5438 5434 5430 5425 5421 5415 5408 5402 5395 5390 5383 5378 5372 5364 5357
5610 5606 5601 5595 5589 5584 5577 5570 5562 5554 5546 5538 5530 5521 5513 5505 5498 5491 5485 5478 5472 5466 5460 5453 5448 5443 5438 5434 5431 5427 5422 5416 5409 5403 5397 5390 5383 5376 5371 5364 5357 5349 5340
5604 5600 5595 5590 5584 5578 5572 5563 5555 5545 5537 5529 5520 5511 5504 5496 5488 5482 5475 5468 5462 5456 5449 5443 5438 5433 5428 5424 5421 5416 5411 5405 5397 5389 5382 5376 5369 5361 5352 5346 5341 5333 5323
5596 5592 5586 5581 5575 5569 5561 5553 5544 5535 5527 5518 5510 5502 5493 5486 5478 5471 5464 5458 5452 5445 5439 5434 5428 5422 5417 5413 5409 5404 5399 5391 5384 5375 5366 5359 5352 5343 5334 5329 5324 5318 5311
5587 5581 5575 5570 5563 5556 5549 5541 5532 5523 5515 5507 5499 5492 5484 5475 5468 5461 5454 5448 5441 5435 5429 5423 5417 5411 5406 5401 5395 5389 5383 5377 5370 5362 5352 5342 5335 5330 5322 5315 5309 5306 5301
5572 5567 5561 5556 5549 5543 5536 5529 5519 5511 5504 5497 5489 5481 5473 5466 5458 5451 5444 5438 5431 5425 5419 5413 5406 5399 5393 5387 5381 5373 5366 5361 5356 5349 5340 5330 5321 5315 5308 5299 5293 5290 5289
5559 5554 5548 5542 5536 5529 5523 5515 5507 5500 5494 5486 5478 5470 5463 5455 5448 5441 5434 5427 5420 5414 5408 5402 5396 5388 5380 5374 5366 5357 5348 5341 5337 5333 5326 5316 5308 5302 5295 5288 5282 5278 5277
5545 5540 5534 5527 5521 5516 5511 5503 5495 5488 5481 5474 5466 5459 5451 5444 5438 5430 5423 5415 5407 5400 5394 5388 5384 5377 5367 5358 5351 5343 5335 5327 5320 5315 5309 5302 5296 5290 5285 5278 5274 5271 5269
5532 5527 5521 5514 5507 5503 5499 5491 5483 5476 5469 5462 5454 5447 5440 5433 5426 5418 5411 5403 5395 5386 5381 5374 5369 5366 5357 5346 5337 5329 5322 5314 5305 5300 5295 5290 5285 5280 5274 5268 5265 5263 5257
5520 5514 5509 5502 5495 5490 5485 5479 5472 5465 5458 5450 5443 5436 5429 5422 5415 5407 5399 5390 5382 5373 5367 5360 5355 5350 5344 5333 5323 5315 5308 5301 5293 5287 5283 5279 5273 5267 5263 5259 5254 5250 5248
5508 5503 5498 5492 5485 5478 5472 5466 5460 5454 5446 5439 5432 5425 5418 5410 5403 5396 5388 5380 5372 5360 5353 5347 5339 5332 5329 5323 5312 5303 5297 5289 5282 5277 5272 5267 5261 5256 5252 5250 5247 5245 5244
5497 5491 5486 5480 5473 5467 5461 5455 5449 5442 5435 5428 5421 5413 5406 5399 5391 5384 5379 5372 5362 5355 5345 5335 5326 5319 5313 5307 5300 5292 5285 5279 5273 5267 5260 5255 5250 5247 5245 5243 5242 5241 5240